| time (UTC) | temp F | wind direction | speed MPH | gust MPH | rain 1hr in | rain 24hr in | rain mn in | humidity % | barometer mb |
| 20260903131605 | 72 | 252 | 5.0 | 12.0 | 0.00 | 0.44 | 0.19 | 93 | 1017.3 |
| 20260903131049 | 72 | 252 | 3.0 | 12.0 | 0.00 | 0.44 | 0.19 | 94 | 1017.2 |
| 20260903130550 | 72 | 252 | 4.0 | 8.0 | 0.00 | 0.44 | 0.19 | 94 | 1017.3 |
| 20260903130054 | 72 | 252 | 3.0 | 7.0 | 0.00 | 0.44 | 0.19 | 94 | 1017.3 |
| 20260903125545 | 72 | 252 | 5.0 | 8.0 | 0.00 | 0.44 | 0.19 | 95 | 1017.4 |
| 20260903125044 | 72 | 252 | 4.0 | 8.0 | 0.00 | 0.44 | 0.19 | 95 | 1017.1 |
| 20260903124542 | 72 | 252 | 3.0 | 8.0 | 0.00 | 0.44 | 0.19 | 95 | 1017.2 |
| 20260903124046 | 72 | 252 | 3.0 | 7.0 | 0.00 | 0.44 | 0.19 | 95 | 1017.1 |
| 20260903123542 | 72 | 252 | 2.0 | 7.0 | 0.00 | 0.44 | 0.19 | 96 | 1017.2 |
| 20260903123047 | 71 | 252 | 4.0 | 8.0 | 0.00 | 0.44 | 0.19 | 96 | 1017.3 |
| 20260903122542 | 71 | 252 | 3.0 | 9.0 | 0.00 | 0.44 | 0.19 | 96 | 1017.7 |
| 20260903122042 | 72 | 252 | 2.0 | 9.0 | 0.00 | 0.44 | 0.19 | 96 | 1017.7 |
| 20260903121541 | 72 | 252 | 2.0 | 7.0 | 0.00 | 0.44 | 0.19 | 96 | 1017.7 |
| 20260903121041 | 72 | 252 | 2.0 | 7.0 | 0.00 | 0.44 | 0.19 | 97 | 1017.7 |
| 20260903120543 | 72 | 252 | 3.0 | 7.0 | 0.00 | 0.44 | 0.19 | 97 | 1017.8 |
| 20260903120041 | 71 | 252 | 3.0 | 5.0 | 0.00 | 0.44 | 0.19 | 97 | 1017.6 |
| 20260903115538 | 71 | 252 | 2.0 | 4.0 | 0.00 | 0.44 | 0.19 | 97 | 1017.3 |
| 20260903115042 | 71 | 252 | 1.0 | 4.0 | 0.00 | 0.44 | 0.19 | 97 | 1017.5 |
| 20260903114537 | 71 | 252 | 2.0 | 5.0 | 0.00 | 0.44 | 0.19 | 97 | 1017.6 |
| 20260903114037 | 71 | 252 | 2.0 | 5.0 | 0.00 | 0.44 | 0.19 | 97 | 1017.4 |
| 20260903113536 | 71 | 252 | 2.0 | 4.0 | 0.00 | 0.44 | 0.19 | 97 | 1017.4 |
| 20260903113041 | 71 | 252 | 1.0 | 4.0 | 0.00 | 0.44 | 0.19 | 97 | 1017.1 |
| 20260903112536 | 71 | 252 | 0.0 | 3.0 | 0.00 | 0.44 | 0.19 | 97 | 1017.0 |
| 20260903112036 | 71 | 252 | 0.0 | 0.0 | 0.00 | 0.44 | 0.19 | 97 | 1017.0 |
| 20260903111535 | 71 | 252 | 0.0 | 3.0 | 0.00 | 0.44 | 0.19 | 97 | 1017.2 |
| 20260903111035 | 71 | 252 | 1.0 | 4.0 | 0.00 | 0.44 | 0.19 | 97 | 1017.4 |
| 20260903110535 | 71 | 252 | 0.0 | 7.0 | 0.00 | 0.44 | 0.19 | 97 | 1017.5 |
| 20260903110036 | 71 | 252 | 2.0 | 7.0 | 0.00 | 0.44 | 0.19 | 97 | 1017.5 |
| 20260903105535 | 71 | 252 | 3.0 | 7.0 | 0.00 | 0.44 | 0.19 | 97 | 1017.4 |
| 20260903105035 | 71 | 252 | 2.0 | 10.0 | 0.00 | 0.44 | 0.19 | 97 | 1017.3 |
| 20260903104533 | 71 | 252 | 3.0 | 10.0 | 0.00 | 0.44 | 0.19 | 97 | 1017.4 |
| 20260903104032 | 71 | 252 | 6.0 | 10.0 | 0.00 | 0.44 | 0.19 | 98 | 1017.3 |
| 20260903103531 | 71 | 252 | 7.0 | 12.0 | 0.00 | 0.44 | 0.19 | 98 | 1017.4 |
| 20260903103030 | 71 | 252 | 6.0 | 12.0 | 0.00 | 0.44 | 0.19 | 98 | 1017.4 |
| 20260903102529 | 71 | 252 | 6.0 | 14.0 | 0.00 | 0.44 | 0.19 | 98 | 1017.4 |
| 20260903102029 | 71 | 252 | 5.0 | 14.0 | 0.00 | 0.44 | 0.19 | 98 | 1017.5 |
| 20260903101525 | 71 | 266 | 4.0 | 12.0 | 0.00 | 0.44 | 0.19 | 98 | 1017.0 |
| 20260903101024 | 71 | 270 | 7.0 | 12.0 | 0.00 | 0.44 | 0.19 | 98 | 1017.1 |
| 20260903100523 | 71 | 282 | 3.0 | 12.0 | 0.00 | 0.44 | 0.19 | 98 | 1017.2 |
| 20260903100022 | 71 | 259 | 2.0 | 13.0 | 0.00 | 0.44 | 0.19 | 98 | 1017.1 |
| 20260903095519 | 71 | 259 | 5.0 | 13.0 | 0.00 | 0.44 | 0.19 | 98 | 1017.1 |
| 20260903095021 | 71 | 261 | 5.0 | 11.0 | 0.00 | 0.44 | 0.19 | 98 | 1017.0 |
| 20260903094517 | 71 | 239 | 3.0 | 11.0 | 0.00 | 0.44 | 0.19 | 98 | 1017.0 |
| 20260903094015 | 71 | 240 | 5.0 | 10.0 | 0.00 | 0.44 | 0.19 | 98 | 1016.9 |
| 20260903093514 | 71 | 227 | 7.0 | 10.0 | 0.00 | 0.44 | 0.19 | 98 | 1016.8 |
| 20260903093012 | 71 | 226 | 7.0 | 10.0 | 0.00 | 0.44 | 0.19 | 98 | 1016.7 |
| 20260903092514 | 71 | 221 | 6.0 | 9.0 | 0.00 | 0.44 | 0.19 | 98 | 1016.5 |
| 20260903092009 | 71 | 218 | 6.0 | 9.0 | 0.00 | 0.44 | 0.19 | 98 | 1016.5 |
| 20260903091516 | 71 | 213 | 4.0 | 11.0 | 0.00 | 0.44 | 0.19 | 98 | 1016.6 |
| 20260903091006 | 71 | 218 | 6.0 | 11.0 | 0.01 | 0.44 | 0.19 | 98 | 1016.3 |
| 20260903090504 | 71 | 250 | 3.0 | 8.0 | 0.01 | 0.44 | 0.19 | 98 | 1016.5 |
| 20260903090003 | 71 | 250 | 3.0 | 10.0 | 0.01 | 0.44 | 0.19 | 98 | 1016.7 |
| 20260903085502 | 71 | 250 | 5.0 | 10.0 | 0.02 | 0.44 | 0.19 | 98 | 1016.9 |
| 20260903085100 | 71 | 252 | 5.0 | 10.0 | 0.02 | 0.44 | 0.19 | 98 | 1017.1 |
| 20260903084559 | 71 | 254 | 7.0 | 10.0 | 0.02 | 0.44 | 0.19 | 98 | 1017.3 |
| 20260903084102 | 71 | 261 | 7.0 | 10.0 | 0.03 | 0.44 | 0.19 | 97 | 1017.5 |
| 20260903083558 | 70 | 277 | 5.0 | 7.0 | 0.03 | 0.44 | 0.19 | 97 | 1017.6 |
| 20260903083058 | 70 | 277 | 2.0 | 5.0 | 0.03 | 0.44 | 0.19 | 97 | 1017.5 |
| 20260903082600 | 70 | 277 | 2.0 | 4.0 | 0.04 | 0.44 | 0.19 | 98 | 1017.1 |
| 20260903082056 | 70 | 286 | 2.0 | 4.0 | 0.05 | 0.44 | 0.19 | 97 | 1017.2 |
| 20260903081556 | 70 | 293 | 0.0 | 3.0 | 0.05 | 0.44 | 0.19 | 97 | 1017.5 |
| 20260903081055 | 70 | 293 | 0.0 | 3.0 | 0.06 | 0.44 | 0.19 | 97 | 1017.4 |
| 20260903080558 | 70 | 293 | 1.0 | 3.0 | 0.05 | 0.43 | 0.18 | 97 | 1017.4 |
| 20260903080056 | 70 | 293 | 0.0 | 2.0 | 0.06 | 0.43 | 0.18 | 97 | 1017.6 |
| 20260903075558 | 70 | 293 | 0.0 | 3.0 | 0.05 | 0.42 | 0.17 | 97 | 1017.8 |
| 20260903075053 | 69 | 293 | 1.0 | 4.0 | 0.05 | 0.42 | 0.17 | 97 | 1017.9 |
| 20260903074553 | 69 | 293 | 0.0 | 5.0 | 0.05 | 0.42 | 0.17 | 97 | 1017.8 |
| 20260903074053 | 69 | 293 | 1.0 | 5.0 | 0.05 | 0.41 | 0.16 | 97 | 1017.9 |
| 20260903073553 | 69 | 294 | 2.0 | 5.0 | 0.05 | 0.41 | 0.16 | 97 | 1017.9 |
| 20260903073054 | 69 | 294 | 2.0 | 5.0 | 0.05 | 0.41 | 0.16 | 97 | 1017.9 |
| 20260903072554 | 69 | 294 | 3.0 | 7.0 | 0.04 | 0.40 | 0.15 | 97 | 1018.0 |
| 20260903072052 | 69 | 294 | 1.0 | 7.0 | 0.03 | 0.39 | 0.14 | 97 | 1018.2 |
| 20260903071552 | 69 | 294 | 2.0 | 5.0 | 0.03 | 0.39 | 0.14 | 97 | 1018.3 |
| 20260903071051 | 69 | 294 | 2.0 | 4.0 | 0.02 | 0.38 | 0.13 | 96 | 1018.5 |
| 20260903070551 | 69 | 294 | 1.0 | 4.0 | 0.03 | 0.38 | 0.13 | 96 | 1018.4 |
| 20260903070051 | 69 | 294 | 2.0 | 4.0 | 0.02 | 0.37 | 0.12 | 96 | 1018.4 |
| 20260903065554 | 69 | 294 | 1.0 | 4.0 | 0.02 | 0.37 | 0.12 | 96 | 1018.4 |
| 20260903065051 | 69 | 294 | 1.0 | 2.0 | 0.02 | 0.37 | 0.12 | 96 | 1018.2 |
| 20260903064550 | 69 | 294 | 0.0 | 1.0 | 0.03 | 0.37 | 0.12 | 96 | 1018.0 |
| 20260903064050 | 69 | 294 | 0.0 | 1.0 | 0.04 | 0.36 | 0.11 | 96 | 1017.9 |
| 20260903063550 | 69 | 294 | 0.0 | 1.0 | 0.05 | 0.36 | 0.11 | 96 | 1018.1 |
| 20260903063050 | 69 | 294 | 0.0 | 2.0 | 0.07 | 0.36 | 0.11 | 96 | 1018.0 |
| 20260903062549 | 69 | 294 | 0.0 | 2.0 | 0.08 | 0.36 | 0.11 | 96 | 1017.8 |
| 20260903062050 | 69 | 294 | 0.0 | 3.0 | 0.11 | 0.36 | 0.11 | 96 | 1017.7 |
| 20260903061554 | 69 | 294 | 1.0 | 3.0 | 0.11 | 0.36 | 0.11 | 96 | 1017.7 |
| 20260903061047 | 69 | 294 | 1.0 | 3.0 | 0.11 | 0.36 | 0.11 | 96 | 1018.0 |
| 20260903060546 | 69 | 294 | 0.0 | 3.0 | 0.10 | 0.35 | 0.10 | 96 | 1018.4 |
| 20260903060045 | 69 | 294 | 0.0 | 2.0 | 0.10 | 0.35 | 0.10 | 96 | 1018.7 |
| 20260903055546 | 69 | 294 | 0.0 | 2.0 | 0.10 | 0.35 | 0.10 | 95 | 1018.9 |
| 20260903055043 | 69 | 294 | 0.0 | 7.0 | 0.10 | 0.35 | 0.10 | 95 | 1018.9 |
| 20260903054543 | 69 | 294 | 1.0 | 15.0 | 0.09 | 0.34 | 0.09 | 95 | 1019.0 |
| 20260903054042 | 70 | 294 | 2.0 | 15.0 | 0.07 | 0.32 | 0.07 | 95 | 1019.6 |
| 20260903053541 | 70 | 294 | 6.0 | 14.0 | 0.05 | 0.30 | 0.05 | 95 | 1019.8 |
| 20260903053040 | 70 | 293 | 6.0 | 14.0 | 0.04 | 0.28 | 0.04 | 95 | 1019.9 |
| 20260903052539 | 71 | 294 | 8.0 | 12.0 | 0.02 | 0.27 | 0.02 | 95 | 1019.9 |
| 20260903052037 | 71 | 117 | 5.0 | 8.0 | 0.00 | 0.25 | 0.00 | 95 | 1019.5 |
| 20260903051537 | 71 | 117 | 0.0 | 3.0 | 0.00 | 0.25 | 0.00 | 95 | 1019.4 |
| 20260903051036 | 71 | 117 | 0.0 | 3.0 | 0.00 | 0.25 | 0.00 | 95 | 1019.4 |
| 20260903050535 | 71 | 117 | 0.0 | 3.0 | 0.00 | 0.25 | 0.00 | 95 | 1019.4 |
| 20260903050034 | 71 | 117 | 2.0 | 3.0 | 0.00 | 0.25 | 0.00 | 95 | 1019.5 |
| 20260903045535 | 71 | 117 | 0.0 | 1.0 | 0.00 | 0.25 | 0.00 | 94 | 1019.7 |
| 20260903045036 | 71 | 117 | 0.0 | 1.0 | 0.00 | 0.25 | 0.00 | 95 | 1019.7 |
| 20260903044536 | 71 | 117 | 0.0 | 0.0 | 0.00 | 0.25 | 0.00 | 94 | 1019.8 |
| 20260903044035 | 71 | 117 | 0.0 | 4.0 | 0.00 | 0.25 | 0.00 | 94 | 1019.7 |
| 20260903043534 | 71 | 117 | 1.0 | 6.0 | 0.00 | 0.25 | 0.00 | 94 | 1019.6 |
| 20260903043040 | 71 | 117 | 2.0 | 7.0 | 0.00 | 0.25 | 0.00 | 94 | 1019.6 |
| 20260903042532 | 71 | 117 | 2.0 | 7.0 | 0.00 | 0.25 | 0.00 | 94 | 1019.6 |
| 20260903042032 | 71 | 117 | 1.0 | 4.0 | 0.00 | 0.25 | 0.00 | 94 | 1019.7 |
| 20260903041531 | 71 | 117 | 1.0 | 3.0 | 0.00 | 0.25 | 0.00 | 94 | 1019.8 |
| 20260903041030 | 71 | 117 | 0.0 | 0.0 | 0.00 | 0.25 | 0.00 | 94 | 1020.0 |
| 20260903040530 | 71 | 117 | 0.0 | 0.0 | 0.00 | 0.25 | 0.00 | 94 | 1019.9 |
| 20260903040029 | 71 | 117 | 0.0 | 2.0 | 0.00 | 0.25 | 0.00 | 94 | 1020.0 |
| 20260903035529 | 71 | 117 | 0.0 | 3.0 | 0.00 | 0.25 | 0.25 | 94 | 1020.0 |
| 20260903035028 | 71 | 117 | 0.0 | 6.0 | 0.00 | 0.25 | 0.25 | 94 | 1020.0 |
| 20260903034539 | 71 | 117 | 1.0 | 6.0 | 0.00 | 0.25 | 0.25 | 94 | 1019.9 |
| 20260903034028 | 71 | 117 | 1.0 | 4.0 | 0.00 | 0.25 | 0.25 | 94 | 1019.7 |
| 20260903033529 | 71 | 117 | 0.0 | 1.0 | 0.00 | 0.25 | 0.25 | 94 | 1019.6 |
| 20260903033028 | 71 | 117 | 0.0 | 3.0 | 0.00 | 0.25 | 0.25 | 94 | 1019.8 |
| 20260903032530 | 71 | 117 | 0.0 | 4.0 | 0.00 | 0.25 | 0.25 | 93 | 1019.8 |
| 20260903032028 | 71 | 117 | 2.0 | 6.0 | 0.00 | 0.25 | 0.25 | 93 | 1019.7 |
| 20260903031527 | 71 | 117 | 1.0 | 8.0 | 0.00 | 0.25 | 0.25 | 93 | 1019.6 |
| 20260903031027 | 71 | 117 | 2.0 | 7.0 | 0.00 | 0.25 | 0.25 | 93 | 1019.8 |
| 20260903030531 | 71 | 117 | 3.0 | 9.0 | 0.00 | 0.25 | 0.25 | 93 | 1020.0 |
| 20260903030027 | 71 | 117 | 4.0 | 9.0 | 0.00 | 0.25 | 0.25 | 93 | 1020.1 |
| 20260903025530 | 71 | 117 | 3.0 | 7.0 | 0.00 | 0.25 | 0.25 | 93 | 1020.3 |
| 20260903025026 | 71 | 117 | 2.0 | 7.0 | 0.00 | 0.25 | 0.25 | 93 | 1020.4 |
| 20260903024525 | 71 | 117 | 2.0 | 7.0 | 0.00 | 0.25 | 0.25 | 94 | 1020.3 |
| 20260903024024 | 71 | 117 | 0.0 | 6.0 | 0.00 | 0.25 | 0.25 | 94 | 1020.5 |
| 20260903023524 | 71 | 117 | 1.0 | 8.0 | 0.00 | 0.25 | 0.25 | 94 | 1020.5 |
| 20260903023024 | 71 | 117 | 3.0 | 9.0 | 0.00 | 0.25 | 0.25 | 94 | 1020.4 |
| 20260903022524 | 71 | 117 | 5.0 | 12.0 | 0.00 | 0.25 | 0.25 | 94 | 1020.1 |
| 20260903022023 | 70 | 117 | 4.0 | 12.0 | 0.00 | 0.25 | 0.25 | 94 | 1020.1 |
| 20260903021524 | 70 | 117 | 7.0 | 14.0 | 0.00 | 0.25 | 0.25 | 94 | 1020.0 |
| 20260903021024 | 70 | 117 | 9.0 | 14.0 | 0.00 | 0.25 | 0.25 | 94 | 1019.8 |
| 20260903020525 | 70 | 113 | 5.0 | 12.0 | 0.00 | 0.25 | 0.25 | 93 | 1020.0 |
| 20260903020045 | 70 | 115 | 8.0 | 12.0 | 0.00 | 0.25 | 0.25 | 93 | 1020.0 |
| 20260903015625 | 70 | 111 | 7.0 | 12.0 | 0.00 | 0.25 | 0.25 | 93 | 1020.1 |
| 20260903015023 | 70 | 111 | 6.0 | 11.0 | 0.00 | 0.25 | 0.25 | 93 | 1020.4 |
| 20260903014522 | 70 | 111 | 4.0 | 10.0 | 0.00 | 0.25 | 0.25 | 93 | 1020.5 |
| 20260903014022 | 70 | 111 | 6.0 | 10.0 | 0.00 | 0.25 | 0.25 | 93 | 1020.5 |
| 20260903013524 | 70 | 111 | 4.0 | 9.0 | 0.00 | 0.25 | 0.25 | 93 | 1020.5 |
| 20260903013022 | 70 | 111 | 3.0 | 11.0 | 0.00 | 0.25 | 0.25 | 93 | 1020.6 |
| 20260903012520 | 70 | 111 | 4.0 | 11.0 | 0.00 | 0.25 | 0.25 | 93 | 1020.6 |
| 20260903012025 | 70 | 108 | 4.0 | 10.0 | 0.00 | 0.25 | 0.25 | 93 | 1020.7 |
| 20260903011520 | 70 | 108 | 4.0 | 10.0 | 0.00 | 0.25 | 0.25 | 93 | 1021.1 |
| 20260903011120 | 70 | 108 | 4.0 | 10.0 | 0.00 | 0.25 | 0.25 | 93 | 1020.9 |
| 20260903010519 | 70 | 109 | 3.0 | 10.0 | 0.00 | 0.25 | 0.25 | 93 | 1021.3 |
| 20260903010019 | 70 | 109 | 3.0 | 8.0 | 0.00 | 0.25 | 0.25 | 93 | 1021.3 |
| 20260903005519 | 70 | 110 | 2.0 | 6.0 | 0.00 | 0.25 | 0.25 | 93 | 1021.3 |
| 20260903005019 | 70 | 110 | 1.0 | 7.0 | 0.00 | 0.25 | 0.25 | 93 | 1021.4 |
| 20260903004519 | 70 | 110 | 2.0 | 9.0 | 0.00 | 0.25 | 0.25 | 93 | 1021.4 |
| 20260903004020 | 70 | 111 | 2.0 | 9.0 | 0.00 | 0.25 | 0.25 | 93 | 1021.3 |
| 20260903003519 | 70 | 107 | 3.0 | 7.0 | 0.00 | 0.25 | 0.25 | 93 | 1021.2 |
| 20260903003019 | 70 | 107 | 2.0 | 9.0 | 0.00 | 0.25 | 0.25 | 93 | 1020.9 |
| 20260903002518 | 70 | 105 | 3.0 | 9.0 | 0.00 | 0.25 | 0.25 | 92 | 1020.9 |
| 20260903002018 | 69 | 106 | 3.0 | 10.0 | 0.00 | 0.25 | 0.25 | 92 | 1020.9 |
| 20260903001517 | 69 | 102 | 4.0 | 10.0 | 0.00 | 0.25 | 0.25 | 92 | 1020.6 |
| 20260903001117 | 69 | 96 | 3.0 | 8.0 | 0.00 | 0.25 | 0.25 | 92 | 1020.5 |
| 20260903000519 | 69 | 96 | 4.0 | 8.0 | 0.00 | 0.25 | 0.25 | 92 | 1020.4 |
| 20260903000016 | 69 | 96 | 3.0 | 9.0 | 0.00 | 0.25 | 0.25 | 92 | 1020.3 |
| 20260902235516 | 69 | 95 | 2.0 | 9.0 | 0.00 | 0.25 | 0.25 | 92 | 1020.3 |
| 20260902235017 | 69 | 92 | 2.0 | 10.0 | 0.00 | 0.25 | 0.25 | 92 | 1020.3 |
| 20260902234520 | 69 | 90 | 3.0 | 10.0 | 0.00 | 0.25 | 0.25 | 92 | 1020.1 |
| 20260902234016 | 69 | 67 | 4.0 | 9.0 | 0.00 | 0.25 | 0.25 | 92 | 1020.1 |
| 20260902233517 | 69 | 58 | 3.0 | 7.0 | 0.00 | 0.25 | 0.25 | 92 | 1020.1 |
| 20260902233016 | 69 | 59 | 2.0 | 9.0 | 0.00 | 0.25 | 0.25 | 92 | 1020.1 |
| 20260902232516 | 69 | 61 | 4.0 | 9.0 | 0.00 | 0.25 | 0.25 | 91 | 1020.2 |
| 20260902232015 | 69 | 40 | 3.0 | 11.0 | 0.00 | 0.25 | 0.25 | 91 | 1020.3 |
| 20260902231517 | 69 | 38 | 4.0 | 11.0 | 0.00 | 0.25 | 0.25 | 91 | 1020.4 |
| 20260902231014 | 69 | 88 | 3.0 | 8.0 | 0.00 | 0.25 | 0.25 | 91 | 1020.6 |
| 20260902230514 | 69 | 92 | 2.0 | 8.0 | 0.00 | 0.25 | 0.25 | 91 | 1020.8 |
| 20260902230014 | 69 | 98 | 2.0 | 10.0 | 0.00 | 0.25 | 0.25 | 91 | 1020.9 |
| 20260902225514 | 69 | 112 | 4.0 | 10.0 | 0.00 | 0.25 | 0.25 | 91 | 1020.6 |
| 20260902225014 | 69 | 65 | 4.0 | 10.0 | 0.00 | 0.25 | 0.25 | 91 | 1020.5 |
| 20260902224514 | 69 | 69 | 4.0 | 10.0 | 0.00 | 0.25 | 0.25 | 91 | 1020.7 |
| 20260902224013 | 69 | 69 | 3.0 | 9.0 | 0.00 | 0.25 | 0.25 | 91 | 1021.3 |
| 20260902223513 | 69 | 78 | 3.0 | 6.0 | 0.00 | 0.25 | 0.25 | 91 | 1021.4 |
| 20260902223017 | 69 | 78 | 3.0 | 8.0 | 0.00 | 0.25 | 0.25 | 91 | 1021.5 |
| 20260902222513 | 69 | 78 | 3.0 | 9.0 | 0.00 | 0.25 | 0.25 | 91 | 1021.5 |
| 20260902222012 | 69 | 78 | 2.0 | 9.0 | 0.00 | 0.25 | 0.25 | 91 | 1021.5 |
| 20260902221517 | 69 | 86 | 3.0 | 8.0 | 0.00 | 0.25 | 0.25 | 91 | 1021.5 |
| 20260902221012 | 69 | 86 | 1.0 | 6.0 | 0.00 | 0.25 | 0.25 | 91 | 1021.6 |
| 20260902220512 | 69 | 86 | 1.0 | 8.0 | 0.00 | 0.25 | 0.25 | 91 | 1021.6 |
| 20260902220015 | 69 | 98 | 3.0 | 8.0 | 0.00 | 0.25 | 0.25 | 91 | 1021.6 |
| 20260902215511 | 69 | 103 | 3.0 | 7.0 | 0.00 | 0.25 | 0.25 | 91 | 1021.6 |
| 20260902215011 | 69 | 105 | 2.0 | 8.0 | 0.01 | 0.25 | 0.25 | 91 | 1021.7 |
| 20260902214511 | 69 | 81 | 3.0 | 8.0 | 0.01 | 0.25 | 0.25 | 91 | 1021.8 |
| 20260902214010 | 69 | 37 | 2.0 | 11.0 | 0.01 | 0.25 | 0.25 | 91 | 1021.6 |
| 20260902213511 | 69 | 105 | 5.0 | 13.0 | 0.01 | 0.25 | 0.25 | 91 | 1021.5 |
| 20260902213010 | 69 | 131 | 5.0 | 13.0 | 0.01 | 0.25 | 0.25 | 92 | 1021.4 |
| 20260902212510 | 69 | 105 | 3.0 | 13.0 | 0.01 | 0.25 | 0.25 | 92 | 1021.3 |
| 20260902212011 | 69 | 107 | 6.0 | 14.0 | 0.01 | 0.25 | 0.25 | 92 | 1021.2 |
| 20260902211509 | 69 | 115 | 6.0 | 14.0 | 0.01 | 0.25 | 0.25 | 92 | 1021.3 |
| 20260902211011 | 69 | 109 | 7.0 | 12.0 | 0.01 | 0.25 | 0.25 | 92 | 1021.2 |
| 20260902210509 | 69 | 103 | 4.0 | 13.0 | 0.02 | 0.25 | 0.25 | 92 | 1021.2 |
| 20260902210013 | 69 | 103 | 6.0 | 13.0 | 0.08 | 0.25 | 0.25 | 92 | 1021.2 |
| 20260902205515 | 69 | 115 | 8.0 | 13.0 | 0.17 | 0.25 | 0.25 | 92 | 1021.3 |
| 20260902205009 | 69 | 105 | 8.0 | 13.0 | 0.20 | 0.24 | 0.24 | 93 | 1021.3 |
| 20260902204509 | 68 | 119 | 5.0 | 11.0 | 0.22 | 0.24 | 0.24 | 93 | 1021.4 |
| 20260902204008 | 68 | 119 | 4.0 | 11.0 | 0.24 | 0.24 | 0.24 | 93 | 1021.5 |
| 20260902203510 | 68 | 124 | 3.0 | 9.0 | 0.24 | 0.24 | 0.24 | 93 | 1021.5 |
| 20260902203008 | 68 | 124 | 3.0 | 10.0 | 0.24 | 0.24 | 0.24 | 93 | 1021.5 |
| 20260902202507 | 68 | 125 | 0.0 | 9.0 | 0.24 | 0.24 | 0.24 | 93 | 1021.7 |
| 20260902202007 | 68 | 126 | 4.0 | 9.0 | 0.24 | 0.24 | 0.24 | 93 | 1021.6 |
| 20260902201516 | 68 | 130 | 2.0 | 9.0 | 0.24 | 0.24 | 0.24 | 93 | 1021.8 |
| 20260902201006 | 68 | 68 | 1.0 | 5.0 | 0.24 | 0.24 | 0.24 | 92 | 1021.7 |
| 20260902200506 | 68 | 65 | 2.0 | 5.0 | 0.23 | 0.23 | 0.23 | 91 | 1021.8 |
| 20260902200006 | 68 | 59 | 0.0 | 8.0 | 0.17 | 0.17 | 0.17 | 90 | 1022.2 |
| 20260902195504 | 69 | 60 | 1.0 | 8.0 | 0.08 | 0.08 | 0.08 | 88 | 1022.2 |
| 20260902195005 | 69 | 55 | 1.0 | 6.0 | 0.04 | 0.04 | 0.04 | 87 | 1022.4 |
| 20260902194504 | 70 | 55 | 1.0 | 8.0 | 0.02 | 0.02 | 0.02 | 86 | 1022.4 |
| 20260902194004 | 70 | 56 | 3.0 | 8.0 | 0.00 | 0.00 | 0.00 | 84 | 1022.0 |
| 20260902193504 | 71 | 59 | 1.0 | 12.0 | 0.00 | 0.00 | 0.00 | 83 | 1021.8 |
| 20260902193004 | 71 | 66 | 6.0 | 12.0 | 0.00 | 0.00 | 0.00 | 82 | 1021.6 |
| 20260902192503 | 71 | 39 | 4.0 | 12.0 | 0.00 | 0.00 | 0.00 | 82 | 1021.4 |
| 20260902192006 | 71 | 113 | 5.0 | 12.0 | 0.00 | 0.00 | 0.00 | 82 | 1021.2 |
| 20260902191503 | 71 | 115 | 4.0 | 13.0 | 0.00 | 0.00 | 0.00 | 82 | 1021.3 |
| 20260902191002 | 71 | 46 | 4.0 | 14.0 | 0.00 | 0.00 | 0.00 | 82 | 1021.5 |
| 20260902190502 | 71 | 80 | 7.0 | 15.0 | 0.00 | 0.00 | 0.00 | 82 | 1021.4 |
| 20260902190003 | 72 | 117 | 7.0 | 15.0 | 0.00 | 0.00 | 0.00 | 82 | 1021.5 |
| 20260902185502 | 72 | 125 | 5.0 | 15.0 | 0.00 | 0.00 | 0.00 | 81 | 1021.5 |
| 20260902185004 | 72 | 132 | 10.0 | 15.0 | 0.00 | 0.00 | 0.00 | 81 | 1021.5 |
| 20260902184503 | 72 | 107 | 4.0 | 15.0 | 0.00 | 0.00 | 0.00 | 81 | 1021.6 |
| 20260902184003 | 72 | 48 | 5.0 | 15.0 | 0.00 | 0.00 | 0.00 | 81 | 1021.6 |
| 20260902183502 | 72 | 114 | 10.0 | 15.0 | 0.00 | 0.00 | 0.00 | 81 | 1021.7 |
| 20260902183002 | 72 | 105 | 8.0 | 16.0 | 0.00 | 0.00 | 0.00 | 81 | 1021.7 |
| 20260902182500 | 72 | 108 | 8.0 | 16.0 | 0.00 | 0.00 | 0.00 | 80 | 1021.6 |
| 20260902182002 | 73 | 103 | 8.0 | 13.0 | 0.00 | 0.00 | 0.00 | 81 | 1021.6 |
| 20260902181501 | 72 | 109 | 7.0 | 14.0 | 0.00 | 0.00 | 0.00 | 81 | 1021.8 |
| 20260902181001 | 72 | 109 | 9.0 | 16.0 | 0.00 | 0.00 | 0.00 | 81 | 1021.9 |
| 20260902180600 | 72 | 121 | 8.0 | 17.0 | 0.00 | 0.00 | 0.00 | 81 | 1021.8 |
| 20260902180100 | 72 | 104 | 12.0 | 17.0 | 0.00 | 0.00 | 0.00 | 80 | 1021.8 |
| 20260902175602 | 73 | 113 | 10.0 | 15.0 | 0.00 | 0.00 | 0.00 | 80 | 1021.9 |
| 20260902175101 | 72 | 110 | 10.0 | 16.0 | 0.00 | 0.00 | 0.00 | 80 | 1022.2 |
| 20260902174600 | 73 | 119 | 9.0 | 16.0 | 0.00 | 0.00 | 0.00 | 80 | 1022.3 |
| 20260902174103 | 72 | 115 | 10.0 | 18.0 | 0.00 | 0.00 | 0.00 | 80 | 1022.3 |
| 20260902173601 | 73 | 108 | 8.0 | 18.0 | 0.00 | 0.00 | 0.00 | 80 | 1022.3 |
| 20260902173100 | 73 | 111 | 8.0 | 17.0 | 0.00 | 0.00 | 0.00 | 79 | 1022.3 |
| 20260902172603 | 73 | 108 | 7.0 | 14.0 | 0.00 | 0.00 | 0.00 | 79 | 1022.2 |
| 20260902172101 | 73 | 108 | 5.0 | 14.0 | 0.00 | 0.00 | 0.00 | 78 | 1022.4 |
| 20260902171608 | 74 | 115 | 8.0 | 14.0 | 0.00 | 0.00 | 0.00 | 77 | 1022.3 |
| 20260902171058 | 73 | 113 | 7.0 | 14.0 | 0.00 | 0.00 | 0.00 | 78 | 1022.4 |
| 20260902170559 | 73 | 113 | 8.0 | 15.0 | 0.00 | 0.00 | 0.00 | 78 | 1022.4 |
| 20260902170058 | 73 | 114 | 4.0 | 14.0 | 0.00 | 0.00 | 0.00 | 78 | 1022.3 |
| 20260902165558 | 73 | 114 | 9.0 | 15.0 | 0.00 | 0.01 | 0.00 | 78 | 1022.2 |
| 20260902165100 | 74 | 115 | 7.0 | 16.0 | 0.00 | 0.01 | 0.00 | 78 | 1022.2 |
| 20260902164559 | 73 | 110 | 10.0 | 15.0 | 0.00 | 0.01 | 0.00 | 78 | 1022.2 |
| 20260902164059 | 73 | 106 | 5.0 | 15.0 | 0.00 | 0.01 | 0.00 | 79 | 1022.1 |
| 20260902163556 | 72 | 107 | 9.0 | 15.0 | 0.00 | 0.01 | 0.00 | 78 | 1022.2 |
| 20260902163056 | 73 | 108 | 5.0 | 13.0 | 0.00 | 0.01 | 0.00 | 78 | 1022.3 |
| 20260902162556 | 72 | 113 | 9.0 | 13.0 | 0.00 | 0.01 | 0.00 | 79 | 1022.2 |
| 20260902162057 | 73 | 114 | 6.0 | 18.0 | 0.00 | 0.01 | 0.00 | 79 | 1022.1 |
| 20260902161554 | 72 | 121 | 8.0 | 18.0 | 0.00 | 0.01 | 0.00 | 79 | 1022.0 |
| 20260902161054 | 72 | 113 | 5.0 | 14.0 | 0.00 | 0.01 | 0.00 | 79 | 1022.1 |
| 20260902160554 | 72 | 107 | 6.0 | 13.0 | 0.00 | 0.01 | 0.00 | 79 | 1022.1 |
| 20260902160112 | 72 | 105 | 5.0 | 12.0 | 0.00 | 0.01 | 0.00 | 78 | 1022.2 |
| 20260902155553 | 72 | 109 | 3.0 | 12.0 | 0.00 | 0.06 | 0.00 | 79 | 1022.5 |
| 20260902155052 | 72 | 110 | 4.0 | 14.0 | 0.00 | 0.06 | 0.00 | 79 | 1022.5 |
| 20260902154557 | 72 | 111 | 7.0 | 14.0 | 0.00 | 0.06 | 0.00 | 79 | 1022.5 |
| 20260902154051 | 72 | 102 | 4.0 | 11.0 | 0.00 | 0.06 | 0.00 | 80 | 1022.5 |
| 20260902153551 | 71 | 102 | 4.0 | 13.0 | 0.00 | 0.06 | 0.00 | 80 | 1022.5 |
| 20260902153055 | 71 | 99 | 5.0 | 12.0 | 0.00 | 0.06 | 0.00 | 80 | 1022.5 |
| 20260902152549 | 71 | 92 | 3.0 | 8.0 | 0.00 | 0.06 | 0.00 | 80 | 1022.6 |
| 20260902152051 | 71 | 94 | 4.0 | 13.0 | 0.00 | 0.06 | 0.00 | 80 | 1022.7 |
| 20260902151555 | 71 | 94 | 2.0 | 13.0 | 0.00 | 0.06 | 0.00 | 80 | 1022.6 |
| 20260902151049 | 71 | 90 | 7.0 | 13.0 | 0.00 | 0.06 | 0.00 | 79 | 1022.5 |
| 20260902150549 | 71 | 88 | 6.0 | 13.0 | 0.00 | 0.06 | 0.00 | 80 | 1022.5 |
| 20260902150049 | 72 | 80 | 5.0 | 12.0 | 0.00 | 0.06 | 0.00 | 79 | 1022.5 |
| 20260902145548 | 71 | 72 | 2.0 | 10.0 | 0.00 | 0.06 | 0.00 | 80 | 1022.6 |
| 20260902145046 | 71 | 71 | 5.0 | 10.0 | 0.00 | 0.06 | 0.00 | 80 | 1022.4 |
| 20260902144547 | 71 | 69 | 4.0 | 10.0 | 0.00 | 0.06 | 0.00 | 79 | 1022.5 |
| 20260902144047 | 71 | 64 | 4.0 | 10.0 | 0.00 | 0.06 | 0.00 | 79 | 1022.6 |
| 20260902143546 | 71 | 62 | 4.0 | 10.0 | 0.00 | 0.06 | 0.00 | 79 | 1022.6 |
| 20260902143047 | 71 | 57 | 3.0 | 6.0 | 0.00 | 0.06 | 0.00 | 80 | 1022.5 |
| 20260902142545 | 70 | 57 | 2.0 | 7.0 | 0.00 | 0.06 | 0.00 | 79 | 1022.6 |
| 20260902142045 | 70 | 57 | 4.0 | 10.0 | 0.00 | 0.06 | 0.00 | 79 | 1022.7 |
| 20260902141551 | 70 | 57 | 4.0 | 15.0 | 0.00 | 0.06 | 0.00 | 79 | 1022.6 |
| 20260902141043 | 70 | 55 | 5.0 | 15.0 | 0.00 | 0.06 | 0.00 | 79 | 1022.6 |
| 20260902140546 | 70 | 53 | 3.0 | 7.0 | 0.00 | 0.06 | 0.00 | 79 | 1022.4 |
| 20260902140041 | 70 | 52 | 2.0 | 7.0 | 0.00 | 0.06 | 0.00 | 79 | 1022.3 |
| 20260902135543 | 70 | 53 | 3.0 | 7.0 | 0.00 | 0.06 | 0.00 | 79 | 1022.2 |
| 20260902135042 | 70 | 53 | 2.0 | 11.0 | 0.00 | 0.06 | 0.00 | 80 | 1022.4 |
| 20260902134540 | 70 | 53 | 3.0 | 11.0 | 0.00 | 0.06 | 0.00 | 79 | 1022.1 |
| 20260902134038 | 69 | 50 | 5.0 | 10.0 | 0.00 | 0.06 | 0.00 | 79 | 1021.9 |
| 20260902133538 | 69 | 50 | 2.0 | 7.0 | 0.00 | 0.06 | 0.00 | 80 | 1021.9 |
| 20260902133046 | 69 | 50 | 2.0 | 9.0 | 0.00 | 0.06 | 0.00 | 80 | 1022.0 |
| 20260902132535 | 69 | 50 | 4.0 | 9.0 | 0.00 | 0.06 | 0.00 | 81 | 1022.0 |
| 20260902132035 | 69 | 51 | 4.0 | 7.0 | 0.00 | 0.06 | 0.00 | 80 | 1022.1 |